Weather History for Key West NAF, FL

Change the Weather History Date:

Saturday, October 27, 2012

  Actual Average Record
Temperature  
Mean Temperature 81 °F -  
Max Temperature 84 °F 82 °F 91 °F (1960)
Min Temperature 78 °F 74 °F 66 °F (1957)
Cooling Degree Days 16    
Growing Degree Days 31 (Base 50)    
Moisture  
Dew Point 65 °F    
Average Humidity 60    
Maximum Humidity 68    
Minimum Humidity 49    
Precipitation  
Precipitation 0.00 in - - ()
Sea Level Pressure  
Sea Level Pressure 29.70 in    
Wind  
Wind Speed 18 mph (NW)    
Max Wind Speed 23 mph    
Max Gust Speed 32 mph    
Visibility 10 miles    
Events      
Averages and records for this station are not official NWS values.
T = Trace of Precipitation, MM = Missing Value Source: NWS Daily Summary

Daily Weather History Graph

Daily Weather History Graph

Search for Another Location

Airport:

Trip Planner

Search our weather history database for the weather conditions in past years. The results will help you decide how hot, cold, wet, or windy it might be!

Date:

Astronomy

Oct. 27, 2012 Rise Set
Actual Time 7:31 AM EDT 6:49 PM EDT
Civil Twilight 7:07 AM EDT 7:13 PM EDT
Nautical Twilight 6:40 AM EDT 7:39 PM EDT
Astronomical Twilight 6:14 AM EDT 8:06 PM EDT
Moon 5:28 PM EDT (10/27) 5:34 AM EDT (10/27)
Length of Visible Light 12h 05m
Length of Day
11h 18m
Waxing Gibbous, 96% of the Moon is Illuminated
Oct 27
Waxing Gibbous
Oct 29
Full
Nov 6
Last Quarter
Nov 13
New
Nov 20
First Quarter

Hourly Weather History & Observations

Time (EDT) Temp. Heat Index Dew Point Humidity Pressure Visibility Wind Dir Wind Speed Gust Speed Precip Events Conditions
12:53 AM 80.1 °F 82.7 °F 68.0 °F 67% 29.67 in 10.0 mi NNW 18.4 mph 27.6 mph N/A   Clear
1:53 AM 79.0 °F - 66.9 °F 66% 29.67 in 10.0 mi NW 15.0 mph 23.0 mph N/A   Partly Cloudy
2:53 AM 79.0 °F - 66.9 °F 66% 29.66 in 10.0 mi NW 17.3 mph 25.3 mph N/A   Partly Cloudy
3:53 AM 78.1 °F - 66.9 °F 68% 29.65 in 10.0 mi NW 16.1 mph 25.3 mph N/A   Clear
4:53 AM 78.1 °F - 66.0 °F 66% 29.65 in 10.0 mi NW 16.1 mph 24.2 mph N/A   Partly Cloudy
5:53 AM 78.1 °F - 66.0 °F 66% 29.66 in 10.0 mi NW 20.7 mph 25.3 mph N/A   Partly Cloudy
5:57 AM 78.8 °F - 66.2 °F 65% 29.66 in 10.0 mi NW 17.3 mph 25.3 mph N/A   Partly Cloudy
6:53 AM 78.1 °F - 66.0 °F 66% 29.67 in 10.0 mi NW 16.1 mph 24.2 mph N/A   Scattered Clouds
7:53 AM 79.0 °F - 64.9 °F 62% 29.69 in 10.0 mi NW 15.0 mph 25.3 mph N/A   Scattered Clouds
8:53 AM 80.1 °F 81.7 °F 64.0 °F 58% 29.72 in 10.0 mi NW 18.4 mph 26.5 mph N/A   Scattered Clouds
9:53 AM 82.0 °F 83.4 °F 64.0 °F 54% 29.73 in 10.0 mi NW 19.6 mph 28.8 mph N/A   Partly Cloudy
10:53 AM 82.9 °F 84.4 °F 64.0 °F 53% 29.74 in 10.0 mi NW 19.6 mph 29.9 mph N/A   Partly Cloudy
11:53 AM 82.9 °F 84.6 °F 64.9 °F 54% 29.74 in 10.0 mi WNW 19.6 mph 31.1 mph N/A   Partly Cloudy
12:53 PM 84.0 °F 86.3 °F 66.0 °F 55% 29.73 in 10.0 mi WNW 18.4 mph 28.8 mph N/A   Clear
1:53 PM 84.0 °F 85.8 °F 64.9 °F 53% 29.71 in 10.0 mi WNW 23.0 mph 31.1 mph N/A   Clear
2:53 PM 84.0 °F 84.9 °F 63.0 °F 49% 29.69 in 10.0 mi NW 20.7 mph 32.2 mph N/A   Clear
3:53 PM 82.9 °F 84.4 °F 64.0 °F 53% 29.68 in 10.0 mi NW 20.7 mph 31.1 mph N/A   Clear
4:53 PM 82.0 °F 83.4 °F 64.0 °F 54% 29.68 in 10.0 mi WNW 23.0 mph 28.8 mph N/A   Scattered Clouds
5:53 PM 81.0 °F 82.2 °F 63.0 °F 54% 29.69 in 10.0 mi NW 18.4 mph 29.9 mph N/A   Scattered Clouds
6:53 PM 79.0 °F - 64.0 °F 60% 29.72 in 10.0 mi NW 16.1 mph 27.6 mph N/A   Scattered Clouds
7:53 PM 79.0 °F - 63.0 °F 58% 29.73 in 10.0 mi NW 18.4 mph 26.5 mph N/A   Scattered Clouds
8:53 PM 79.0 °F - 63.0 °F 58% 29.74 in 10.0 mi NW 19.6 mph 27.6 mph N/A   Partly Cloudy
9:53 PM 79.0 °F - 63.0 °F 58% 29.76 in 10.0 mi NW 17.3 mph - N/A   Clear
10:53 PM 78.1 °F - 64.9 °F 64% 29.78 in 10.0 mi NW 16.1 mph - N/A   Clear
11:53 PM 79.0 °F - 66.0 °F 64% 29.78 in 10.0 mi NW 15.0 mph - N/A   Partly Cloudy